Location: Augustenthal
(51.7167°N, 10.2833°E)
Time: 08:25:21
(UTC+00:00)

Gbstr 26 Del rocket - Pass Details

Date: 18 May 2021
Orbit: 493 x 1263 km, 51.8° (Epoch: 20 June)

Event Time Altitude Azimuth Distance (km) Brightness Sun altitude
Rises 19:48:04 0° 287° (WNW) 4,208 8.7 -5.5°
Reaches altitude 10° 19:51:03 10° 285° (WNW) 3,205 7.9 -5.8°
Maximum altitude 19:58:53 67° 206° (SSW) 1,224 4.5 -6.7°
Drops below altitude 10° 20:05:37 10° 125° (SE) 2,771 5.7 -7.4°
Enters shadow 20:06:00 - 125° (SE) 2,900 5.8 -7.5°
